Regional Weather Roundup
Issued by NWS Cleveland, OH

Home | Current Version | Previous Version | Graphics & Text | Print | Product List | Glossary On
Versions: 1 2 3 4 5 6 7 8 9 10 11 12 13 14 15 16 17 18 19 20 21 22 23 24 25 26 27 28 29 30 31 32 33 34 35 36 37 38 39 40 41 42 43 44 45 46 47 48 49 50
000
ASUS41 KCLE 300610
RWRCLE
OHIO REGIONAL WEATHER ROUNDUP
NATIONAL WEATHER SERVICE CLEVELAND, OH
200 AM EDT THU OCT 30 2014

NOTE: "FAIR" INDICATES FEW OR NO CLOUDS BELOW 12,000 FEET WITH NO
SIGNIFICANT WEATHER AND/OR OBSTRUCTIONS TO VISIBILITY.

OHZ001>008-015>018-024>027-034-035-043-044-300700-
   NORTHWEST OHIO

CITY           SKY/WX    TMP DP  RH WIND       PRES   REMARKS
DEFIANCE       CLOUDY    43  38  82 W3        30.12R
FINDLAY        CLOUDY    43  37  79 W7        30.10S
TOLEDO EXPRESS CLOUDY    43  38  82 W7        30.10S
TOLEDO EXEC    CLOUDY    42  38  85 W6        30.10F
LIMA           CLOUDY    44  36  73 W6        30.11S
$$

OHZ009>014-019>023-028>033-038-089-300700-
   NORTHEAST OHIO

CITY           SKY/WX    TMP DP  RH WIND       PRES   REMARKS
CLE-HOPKINS    CLOUDY    43  40  89 SW7       30.09S
CLE-LAKEFRONT  MOCLDY   N/A N/A N/A NW17      30.06S
CUY CO. ARPT   NOT AVBL
LORAIN-ELYRIA  PTCLDY    40  37  89 W6        30.08S
ASHTABULA      CLOUDY    43  41  93 SW3       30.05S
AKRON-CANTON   CLOUDY    44  36  73 NW8       30.07R
WOOSTER        CLOUDY    43  37  79 NW7       30.08S
MANSFIELD      PTCLDY    39  36  89 W6        30.08S
YOUNGSTOWN     CLOUDY    43  39  86 W6        30.05R
$$

OHZ042-051>053-060>062-070>072-077>081-300700-
  SOUTHWEST OHIO

CITY           SKY/WX    TMP DP  RH WIND       PRES   REMARKS
CINC-COVINGTON CLOUDY    44  34  67 NW7       30.13S
CINC-LUNKEN    CLOUDY    46  35  65 NW5       30.14F
HAMILTON       CLOUDY    46  36  68 NW5       30.14F
DAYTON         CLOUDY    44  36  73 NW6       30.13F
WRIGHT-PAT AFB CLOUDY    45  35  69 VRB6      30.12S
DAYTON GENERAL CLOUDY    45  35  68 N7        30.12S
WILMINGTON     CLOUDY    44  34  67 N7        30.11F
$$

OHZ036-037-039>041-045>050-054>059-063>069-073>076-082>088-300700-
  CENTRAL AND SOUTHEAST OHIO

CITY           SKY/WX    TMP DP  RH WIND       PRES   REMARKS
COLUMBUS       CLOUDY    45  34  65 NW9       30.10S
OSU AIRPORT    CLOUDY    44  35  70 NW7       30.10S
BOLTON FIELD   CLOUDY    44  37  75 NW5       30.11S
RICKENBACK AFB CLOUDY    44  35  72 NW5       30.10F
NEWARK         CLOUDY    43  34  70 NW8       30.09S
MARION         CLOUDY    42  36  79 NW6       30.10S
LANCASTER      CLOUDY    44  34  67 NW6       30.10S
ZANESVILLE     CLEAR     40  32  73 W5        30.09S
NEW PHILLY       N/A     41  35  79 CALM      30.09S
$$



USA.gov is the U.S. government's official web portal to all federal, state and local government web resources and services.